Regional Weather Roundup
Issued by NWS Newport/Morehead, NC

Current Version | Previous Version | Graphics & Text | Print | Product List | Glossary Off
Versions: 1 2 3 4 5 6 7 8 9 10 11 12 13 14 15 16 17 18 19 20 21 22 23 24 25 26 27 28 29 30 31 32 33 34 35 36 37 38 39 40 41 42 43 44 45 46 47 48 49 50

000
ASUS42 KMHX 241026
RWRMHX
WEATHER ROUNDUP FOR EASTERN NORTH CAROLINA
NATIONAL WEATHER SERVICE NEWPORT/MOREHEAD CITY NC
600 AM EDT THU MAY 24 2018

NOTE: "FAIR" INDICATES FEW OR NO CLOUDS BELOW 12,000 FEET
WITH NO SIGNIFICANT WEATHER AND/OR OBSTRUCTIONS TO VISIBILITY

NCZ015>017-031-032-045>047-102-103-241100-
NORTH COAST

CITY           SKY/WX    TMP DP  RH WIND       PRES   REMARKS
EDENTON        FAIR      68  66  95 CALM      30.12R
ELIZABETH CITY FAIR      69  67  93 NW7       30.10R
KITTY HAWK     FAIR      68  64  86 N3        30.09R
MANTEO         FAIR      69  64  81 NE8       30.11R

$$

NCZ045>047-081-094-103-104-241100-
CENTRAL COAST

CITY           SKY/WX    TMP DP  RH WIND       PRES   REMARKS
FRISCO         FAIR      71  69  93 VRB3      30.08R

$$

NCZ095-097-098-100-101-241100-
SOUTHERN COAST

CITY           SKY/WX    TMP DP  RH WIND       PRES   REMARKS
BEAUFORT       FAIR      71  70  96 SW7       30.09R
CEDAR ISLAND   NOT AVBL
JACKSONVILLE   CLOUDY    72  71  97 S5        30.07S
PINEY ISLAND   NOT AVBL
WILMINGTON     CLOUDY    72  67  84 W6        30.08R


$$

NCZ011>013-027>030-043-044-078>080-089-090>093-098-241100-
COASTAL PLAIN

CITY           SKY/WX    TMP DP  RH WIND       PRES   REMARKS
AHOSKIE        FAIR      65  65 100 CALM      30.13R
CLINTON        CLOUDY    71  71 100 CALM      30.10R
ELIZABETHTOWN  CLOUDY    72  70  93 S7        30.09R
GOLDSBORO      CLOUDY    72  70  94 E6        30.08R FOG
GREENVILLE     MOCLDY    70  70 100 NE5       30.12R
HAVELOCK       NOT AVBL
KENANSVILLE    CLOUDY    68  68 100 CALM      30.10R FOG
KINSTON        CLOUDY    70  70  99 NE5       30.11R FOG
NEW BERN       MOCLDY    68  68 100 CALM      30.11R
RICHLANDS      CLOUDY    71  70  96 CALM      30.09R
ROCKY MOUNT    CLOUDY    71  69  93 NE7       30.11R
WASHINGTON     FOG       67  67  98 CALM      30.12R VSB 1/4
WHITEVILLE     FAIR      70  68  93 CALM      30.09R

$$

AMZ130-135-150-152-154-156-158-170-250-252-270-ANZ085-086-088-633-658-670-241100-
MARINE OBSERVATIONS

STATION/POSITION TIME  TEMP    WIND        PRES    WAVE   SWELL
                       AIR SEA DIR/SP/G            HT/PER HT/PER
                 (UTC) (F)     (DEG/KT/KT) (MB)    (FT/S) (FT/S)
CHESAPEAKE LIGHT NOT AVBL
64 E VA BEACH    0950   67 66  330/  8/  8 1018.9    3/ 6   3/ 6
DUCK             1000   69 63  340/  8/  9 1018.8
2 E DUCK         1000      68                N/A     1/ 8
OREGON INLET     0954   69 78  350/  6/  9 1018.5
13E OREGON INLT  0948      68                N/A     3/ 6   3/ 6
HATTERAS CG      1000   73 75  340/ 11/ 12 1018.4
DIAMOND BUOY     1010   73 74  340/ 12/ 14 1018.8
CAPE LOOKOUT     1000          250/  8/ 10 1018.9
BEAUFORT LAB     1000   71 77  240/  3/  7 1019.0
30 SE NEW RVR IN 1008   72     250/  6/ 10 1019.1
30 SE NEW RVR IN 1000      75                N/A     4/ 5
27 SE WRIGHTSVLE 1008   75 75  280/  8/ 14 1019.0
5 SE WRIGHTSVLE  1008   72 73  220/  2/  4 1018.2
225 S CAPE HAT   1010      78  260/  8/ 12 1019.0
41 SE CHARLESTON 1010      74  240/  4/  4 1019.1

$$



USA.gov is the U.S. government's official web portal to all federal, state and local government web resources and services.